Regional Weather Roundup
Issued by NWS

Home | Current Version | Previous Version | Text Only | Print | Product List | Glossary Off
Versions: 1 2 3 4 5 6 7 8 9 10 11 12 13 14 15 16 17 18 19 20 21 22 23 24 25 26 27 28 29 30 31 32 33 34 35 36 37 38 39 40 41 42 43 44 45 46 47 48 49 50

079
ASUS43 KMKX 230620
RWRWI

WISCONSIN REGIONAL WEATHER ROUNDUP
NATIONAL WEATHER SERVICE MILWAUKEE/SULLIVAN WI
1200 AM CST MON JAN 23 2017

NOTE: "FAIR" INDICATES FEW OR NO CLOUDS BELOW 12,000 FEET WITH NO
SIGNIFICANT WEATHER AND/OR OBSTRUCTIONS TO VISIBILITY.

WIZ001-002-006>008-014>016-023>028-230700-
NORTHWEST WISCONSIN

CITY           SKY/WX    TMP DP  RH WIND       PRES   REMARKS
SUPERIOR ARPT  CLOUDY    35  35 100 W5        29.75S WCI  31
6HR MIN TEMP:  34; 6HR MAX TEMP:  36;

ASHLAND        FOG       34  34 100 SW5       29.74S VSB 3/4 WCI  30
6HR MIN TEMP:  33; 6HR MAX TEMP:  35; 6HR PCP: TRACE;

HAYWARD        FOG       35  34  96 CALM      29.73F VSB 1/4
6HR MIN TEMP:  34; 6HR MAX TEMP:  37; 6HR PCP: TRACE;

SIREN          FOG       35  35 100 NW5       29.76S VSB 3/4 WCI  31
6HR MIN TEMP:  35; 6HR MAX TEMP:  36;

CUMBERLAND     FOG       34  32  93 W7        29.74S VSB 3/4 WCI  28
RICE LAKE      CLOUDY    35  35 100 W3        29.75F FOG
6HR MIN TEMP:  35; 6HR MAX TEMP:  36;

CHETEK         CLOUDY    35  35 100 CALM      29.74F FOG
6HR MIN TEMP:  34; 6HR MAX TEMP:  35;

LADYSMITH      CLOUDY    35  34  98 W3        29.74F FOG
6HR MIN TEMP:  34; 6HR MAX TEMP:  36;

EAU CLAIRE     FOG       34  34 100 SW3       29.75S VSB 1/4
6HR MIN TEMP:  34; 6HR MAX TEMP:  36;

MENOMONIE        N/A    N/A N/A N/A MISG        N/A
NEW RICHMOND   FOG       35  35 100 W7        29.76F VSB 1   WCI  29
6HR MIN TEMP:  35; 6HR MAX TEMP:  36;

OSCEOLA        CLOUDY    35  35 100 W6        29.79F FOG     WCI  30
6HR MIN TEMP:  35; 6HR MAX TEMP:  37;

$$

WIZ003>005-009-010-017-018-230700-
NORTH CENTRAL WISCONSIN

CITY           SKY/WX    TMP DP  RH WIND       PRES   REMARKS
MANITOWISH WTR CLOUDY    32  32 100 CALM      29.70S FOG
6HR MIN TEMP:  32; 6HR MAX TEMP:  33;

ARBOR VITAE    CLOUDY    34  33  96 N3        29.70S
6HR MIN TEMP:  34; 6HR MAX TEMP:  37;

WOODRUFF       CLOUDY    34  33  96 N3        29.70S
6HR MIN TEMP:  34; 6HR MAX TEMP:  37;

RHINELANDER    CLOUDY    35  34  96 CALM      29.70S
6HR MIN TEMP:  35; 6HR MAX TEMP:  36;

EAGLE RIVER    CLOUDY    32  32 100 CALM      29.69S
6HR MIN TEMP:  32; 6HR MAX TEMP:  35;

LAND O LAKES   CLOUDY    33  33 100 CALM      29.71R FOG
6HR MIN TEMP:  33; 6HR MAX TEMP:  35;

PHILLIPS       CLOUDY    32  32 100 CALM      29.70S FOG
6HR MIN TEMP:  32; 6HR MAX TEMP:  34;

TOMAHAWK       CLOUDY    33  32  98 CALM      29.72R
6HR MIN TEMP:  33; 6HR MAX TEMP:  35;

MEDFORD        CLOUDY    33  33 100 CALM      29.72R FOG
6HR MIN TEMP:  33; 6HR MAX TEMP:  34;

MERRILL        CLOUDY    34  34 100 CALM        N/A
6HR MIN TEMP:  34; 6HR MAX TEMP:  37;

$$

WIZ029-030-035-036-043>047-230700-
CENTRAL WISCONSIN

CITY           SKY/WX    TMP DP  RH WIND       PRES   REMARKS
WAUSAU         CLOUDY    35  34  96 CALM      29.71R
6HR MIN TEMP:  34; 6HR MAX TEMP:  36;

MOSINEE        CLOUDY    34  34 100 NW3       29.73S
MARSHFIELD     CLOUDY    34  33  96 NW7       29.72R FOG     WCI  28
6HR MIN TEMP:  33; 6HR MAX TEMP:  35;

STEVENS POINT  FOG       33  33 100 CALM      29.74R VSB 1/2
6HR MIN TEMP:  33; 6HR MAX TEMP:  35;

WAUPACA        CLOUDY    38  37  94 CALM      29.73S
6HR MIN TEMP:  37; 6HR MAX TEMP:  39;

WAUTOMA        FOG       36  34  93 W6        29.75S VSB 3/4 WCI  31
6HR MIN TEMP:  35; 6HR MAX TEMP:  36;

WISC RAPIDS    CLOUDY    34  34 100 NW3       29.75R FOG
6HR MIN TEMP:  35; 6HR MAX TEMP:  37; 6HR PCP:  0.01;

CAMP DOUGLAS   CLOUDY    36  34  93 W3        29.75S FOG
6HR MIN TEMP:  35; 6HR MAX TEMP:  36;

$$

WIZ011>013-019>022-031-037>040-048>050-230700-
NORTHEAST WISCONSIN

CITY           SKY/WX    TMP DP  RH WIND       PRES   REMARKS
ANTIGO         CLOUDY    33  33 100 N5        29.71S WCI  29
6HR MIN TEMP:  33; 6HR MAX TEMP:  35;

SHAWANO        CLOUDY    38  36  94 CALM      29.73R FOG
6HR MIN TEMP:  37; 6HR MAX TEMP:  39;

OCONTO         CLOUDY    33  33 100 CALM      29.72S VSB 1/2
6HR MIN TEMP:  33; 6HR MAX TEMP:  35;

STURGEON BAY   FOG       35  34  96 CALM      29.72S VSB 1/2
6HR MIN TEMP:  34; 6HR MAX TEMP:  36;

GREEN BAY      FOG       36  35  96 W3        29.72S VSB 3/4
6HR MIN TEMP:  36; 6HR MAX TEMP:  38;

MANITOWOC      CLOUDY    36  36 100 MISG      29.72S FOG
6HR MIN TEMP:  35; 6HR MAX TEMP:  37; 6HR PCP: TRACE;

APPLETON       CLOUDY    34  34 100 W8        29.71S FOG     WCI  27
CLINTONVILLE   CLOUDY    36  34  93 NW3       29.72S
OSHKOSH        CLOUDY    36  34  92 W6        29.72S FOG     WCI  31
6HR MIN TEMP:  36; 6HR MAX TEMP:  37;

$$

WIZ032>034-041-042-053>061-230700-
SOUTHWEST WISCONSIN

CITY           SKY/WX    TMP DP  RH WIND       PRES   REMARKS
LA CROSSE      CLOUDY    39  36  89 N3        29.78R FOG
6HR MIN TEMP:  38; 6HR MAX TEMP:  39; 6HR PCP: TRACE;

SPARTA         DRIZZLE   34  34 100 CALM      29.78R
6HR MIN TEMP:  34; 6HR MAX TEMP:  35;

VIROQUA        CLOUDY    34  34 100 CALM      29.76R
6HR MIN TEMP:  34; 6HR MAX TEMP:  35;

BOSCOBEL       CLOUDY    38  35  89 CALM      29.78S
6HR MIN TEMP:  38; 6HR MAX TEMP:  39;

PRAIRIE DU CHI CLOUDY    36  33  92 W7        29.79S FOG     WCI  30
6HR MIN TEMP:  36; 6HR MAX TEMP:  37;

PLATTEVILLE    CLOUDY    36  36 100 NW3       29.77S
6HR MIN TEMP:  36; 6HR MAX TEMP:  37;

$$

WIZ056-057-062-063-064-067-068-230700-
SOUTH CENTRAL WISCONSIN

CITY           SKY/WX    TMP DP  RH WIND       PRES   REMARKS
REEDSBURG      CLOUDY    35  35 100 W3        29.75S
6HR MIN TEMP:  35; 6HR MAX TEMP:  37;

BARABOO/DELLS  CLOUDY    35  35 100 W3        29.75S FOG
6HR MIN TEMP:  35; 6HR MAX TEMP:  36;

LONE ROCK      CLOUDY    36  34  92 W5        29.78R FOG     WCI  32
6HR MIN TEMP:  35; 6HR MAX TEMP:  38;

MINERAL POINT  FOG       36  36 100 NW3       29.76S VSB 3/4
MADISON        CLOUDY    36  35  96 NW7       29.75S FOG     WCI  30
6HR MIN TEMP:  36; 6HR MAX TEMP:  38;

MIDDLETON      CLOUDY    37  37 100 NW5       29.75S WCI  33
6HR MIN TEMP:  37; 6HR MAX TEMP:  38;

WATERTOWN      CLOUDY    36  36 100 CALM      29.73S FOG
6HR MIN TEMP:  36; 6HR MAX TEMP:  38;

MONROE         CLOUDY    36  36 100 NW7       29.73F WCI  30
JANESVILLE     CLOUDY    37  37 100 CALM      29.74S
$$

WIZ051-052-058>065-066-070>072-230700-
SOUTHEAST WISCONSIN

CITY           SKY/WX    TMP DP  RH WIND       PRES   REMARKS
MILWAUKEE      CLOUDY    38  35  89 CALM      29.73R FOG
6HR MIN TEMP:  38; 6HR MAX TEMP:  42;

WAUKESHA       CLOUDY    34  34 100 CALM      29.74S FOG
MILWAUKEE/TIMM CLOUDY    36  34  93 NW3       29.74S FOG
RACINE         CLOUDY    36  34  92 N5        29.73F FOG     WCI  32
6HR MIN TEMP:  36; 6HR MAX TEMP:  40;

KENOSHA        CLOUDY    37  36  96 N3        29.72S FOG
6HR MIN TEMP:  37; 6HR MAX TEMP:  40;

FOND DU LAC    CLOUDY    36  34  92 CALM      29.73S
6HR MIN TEMP:  36; 6HR MAX TEMP:  39; 6HR PCP: TRACE;

SHEBOYGAN      CLOUDY    36  34  92 CALM      29.72R FOG
6HR MIN TEMP:  36; 6HR MAX TEMP:  38;

WEST BEND      CLOUDY    36  36 100 N3        29.73R FOG
JUNEAU         CLOUDY    35  34  99 W3        29.74S FOG
6HR MIN TEMP:  35; 6HR MAX TEMP:  37;

$$

LSZ147-162-230700-
LAKE SUPERIOR

STATION/POSITION TIME  TEMP    WIND        PRES    WAVE
                       AIR SEA DIR/SP/G            HT/PER
                 (UTC) (F)     (DEG/KT/KT) (MB)    (FT/S)
DEVILS ISLAND    0600   35     210/  6/  7 1007.2F
PORT WING        0540   35     160/  3/  3 1007.1S
SAXON HARBOR     0540   33     200/  1/  3 1007.1S
$$

LMZ867-665-643>646-230700-
LAKE MICHIGAN

STATION/POSITION TIME  TEMP    WIND        PRES    WAVE
                       AIR SEA DIR/SP/G            HT/PER
                 (UTC) (F)     (DEG/KT/KT) (MB)    (FT/S)
NORTHPORT PIER   0540   34        CALM     1006.4R
SISTER BAY       0505   34        CALM       N/A
KEWAUNEE LAK



USA.gov is the U.S. government's official web portal to all federal, state and local government web resources and services.